CAPE
0 0 0 0 0 0 0 3 1 0 0 0 0 0 0 0 0 0 0 0 0 0 0 0 0 0 0 0 0 0 0 0 0 7 23 24 42 67 76 91 24 0 117 190
0 0 0 0 0 0 0 0 2 8 13 0 0 0 0 0 0 0 0 0 0 0 0 0 0 0 0 0 0 1 1 1 1 2 6 23 40 60 60 185 114 112 216 435
9 0 0 0 0 0 0 0 0 0 0 0 0 0 0 0 0 0 0 0 0 0 0 0 0 1 2 3 4 5 11 17 28 35 27 14 32 45 60 93 111 365 246 382
10 5 2 0 0 0 0 0 0 0 0 0 0 0 0 0 0 0 0 0 0 0 0 0 0 0 0 0 2 9 19 30 35 45 63 53 61 44 133 177 172 132 124 137
1 1 0 0 0 0 0 0 0 0 0 0 0 0 0 0 0 0 0 0 0 0 0 0 0 1 0 0 4 1 0 0 0 0 3 19 18 41 46 66 167 286 165 45
6 4 0 0 0 0 0 0 0 0 0 0 0 0 0 0 0 0 0 0 0 0 0 0 1 0 0 0 0 3 4 1 2 13 31 30 31 52 2 11 30 14 0 0
7 2 0 0 0 0 0 0 0 0 0 0 0 0 0 0 0 0 0 0 0 0 0 0 0 0 3 4 0 3 11 15 30 30 20 25 2 9 3 0 0 0 0 0
13 7 0 0 0 0 0 0 0 0 0 0 0 0 0 0 0 0 0 0 0 0 0 0 0 2 0 1 7 3 15 17 4 15 5 27 9 3 0 0 0 0 0 0
0 0 0 0 0 0 0 0 0 0 0 0 0 0 0 0 0 0 0 0 0 0 0 1 2 5 8 11 8 13 0 6 4 7 6 1 0 1 0 0 0 0 0 0
0 0 0 0 0 0 0 0 0 0 0 0 0 0 0 0 0 0 0 0 0 0 1 1 3 4 5 6 9 5 2 0 0 0 0 0 0 0 0 0 0 0 0 0
0 0 0 0 0 0 0 0 0 0 0 0 0 0 0 0 0 0 0 0 0 0 3 2 6 0 1 4 6 4 2 2 0 0 0 0 0 0 0 0 0 0 0 0
0 0 0 0 0 0 0 0 0 0 0 0 0 0 0 0 0 0 0 0 0 0 1 0 1 4 1 3 13 3 1 1 0 0 0 0 0 0 0 0 0 0 0 1
0 0 0 0 0 0 0 0 0 0 0 0 0 0 0 0 0 0 0 0 0 0 3 7 6 11 4 1 2 2 0 1 1 0 0 1 0 1 3 1 2 0 0 1
0 0 0 0 0 0 0 0 0 0 0 0 0 0 0 0 0 0 0 0 0 0 0 0 0 1 2 1 0 1 1 0 0 1 1 1 1 1 2 7 7 2 0 0
0 0 0 0 0 1 2 0 0 0 0 0 0 0 0 0 0 0 0 0 0 0 0 0 0 0 0 2 1 1 0 0 1 0 0 2 0 0 1 3 6 2 1 0
0 0 0 0 0 17 1 0 0 0 0 0 0 0 0 0 0 0 0 0 0 0 0 0 0 0 0 0 2 2 3 1 1 1 0 1 3 1 1 6 4 5 4 2
13 2 1 0 9 11 0 0 0 0 0 0 0 0 0 0 0 0 0 0 0 0 0 0 0 0 0 0 3 4 6 2 1 2 0 3 5 2 1 2 6 6 1 0
0 0 0 24 65 3 0 0 0 0 0 0 0 0 0 0 0 0 0 0 0 0 0 0 0 0 0 0 0 0 1 4 5 6 4 4 3 3 1 5 9 4 1 0
0 0 3 30 4 0 0 0 0 0 0 0 0 0 0 0 0 0 0 0 0 0 0 0 0 0 0 0 0 0 0 2 8 7 3 5 1 2 2 3 6 2 0 0
8 10 6 0 0 0 0 0 0 0 0 0 0 0 0 0 0 0 0 0 0 0 0 0 0 0 0 0 0 0 0 0 4 14 7 3 5 2 3 0 1 1 1 3
14 10 8 27 0 0 0 0 0 0 0 0 0 0 0 0 0 0 0 1 0 0 0 0 0 0 0 0 0 0 0 1 4 14 18 12 9 0 2 1 4 2 2 4
5 0 0 0 0 0 0 0 0 0 0 0 0 0 0 0 0 0 0 0 0 0 0 0 0 0 0 0 0 0 1 2 5 14 21 15 13 9 3 3 4 4 3 4
0 0 0 1 0 0 0 0 0 0 0 1 0 0 1 0 2 6 10 6 1 1 0 0 0 0 0 0 1 2 3 3 1 6 21 20 14 11 4 3 1 0 3 2
0 0 0 0 2 0 0 0 5 3 7 11 8 9 10 14 19 4 11 2 1 0 0 0 0 0 0 1 2 5 2 4 4 3 10 14 13 9 5 2 0 1 1 0
0 0 0 0 3 6 1 1 0 10 2 3 3 4 11 8 9 5 3 4 0 1 2 0 0 0 1 6 7 5 6 3 2 4 1 16 13 14 9 1 1 0 0 1
0 1 4 0 0 0 0 0 3 8 14 17 18 33 27 17 13 15 20 8 5 2 5 9 8 6 6 4 9 5 3 3 2 3 3 17 20 10 14 4 0 0 0 0
12 1 3 4 0 0 0 0 0 9 17 29 30 32 24 17 14 7 8 20 21 15 11 10 7 4 5 2 1 5 6 6 4 3 1 6 9 16 18 6 0 0 0 0
CIN
-0 -0 -0 -0 -0 -0 -0 -3 -13 -0 -0 -0 -0 -0 -0 -0 -0 -0 -0 -0 -0 -0 -0 -0 -0 -0 -0 -0 -0 -0 -0 -0 -0 -26 -33 -34 -40 -39 -35 -46 -31 -0 -92 -69
-6 -0 -0 -0 -0 -0 -0 -0 -0 -1 -0 -0 -0 -0 -0 -0 -0 -0 -0 -0 -0 -0 -0 -0 -0 -0 -0 -0 -0 -6 -6 -8 -12 -19 -16 -21 -17 -29 -28 -29 -32 -38 -40 -19
-0 -0 -0 -0 -0 -0 -0 -0 -0 -0 -0 -0 -0 -0 -0 -0 -0 -0 -0 -0 -0 -0 -0 -0 -0 -0 -1 -2 -4 -6 -5 -1 -0 -1 -1 -4 -8 -7 -7 -12 -16 -24 -20 -19
-0 -0 -0 -0 -0 -0 -0 -0 -0 -0 -0 -0 -0 -0 -0 -0 -0 -0 -0 -0 -0 -0 -0 -0 -0 -0 -0 -0 -0 -1 -0 -0 -0 -0 -1 -0 -4 -2 -11 -16 -26 -55 -90 -25
-0 -0 -0 -0 -0 -0 -0 -0 -0 -0 -0 -0 -0 -0 -0 -0 -0 -0 -0 -0 -0 -0 -0 -0 -0 -1 -0 -0 -2 -2 -0 -0 -1 -0 -29 -16 -13 -34 -48 -41 -19 -30 -47 -107
-0 -0 -0 -0 -0 -0 -0 -0 -0 -0 -0 -0 -0 -0 -0 -0 -0 -0 -0 -0 -0 -0 -0 -0 -2 -0 -0 -0 -1 -0 -1 -8 -5 -0 -0 -0 -12 -3 -18 -16 -13 -55 -0 -0
-0 -0 -0 -0 -0 -0 -0 -0 -0 -0 -0 -0 -0 -0 -0 -0 -0 -0 -0 -0 -0 -0 -0 -0 -0 -0 -0 -0 -1 -2 -0 -0 -0 -0 -2 -1 -9 -2 -2 -0 -0 -0 -0 -0
-0 -0 -0 -0 -0 -0 -0 -0 -0 -0 -0 -0 -0 -0 -0 -0 -0 -0 -0 -0 -0 -0 -0 -0 -0 -0 -0 -0 -0 -0 -0 -0 -0 -0 -0 -0 -2 -2 -0 -0 -0 -0 -0 -0
-0 -0 -0 -0 -0 -0 -0 -0 -0 -0 -0 -0 -0 -0 -0 -0 -0 -0 -0 -0 -0 -0 -0 -0 -0 -0 -0 -0 -0 -0 -0 -0 -0 -0 -0 -0 -0 -0 -0 -0 -0 -0 -0 -0
-0 -0 -0 -0 -0 -0 -0 -0 -0 -0 -0 -0 -0 -0 -0 -0 -0 -0 -0 -0 -0 -0 -0 -0 -0 -0 -0 -0 -0 -0 -0 -0 -0 -0 -0 -0 -0 -0 -0 -0 -0 -0 -0 -0
-0 -0 -0 -0 -0 -0 -0 -0 -0 -0 -0 -0 -0 -0 -0 -0 -0 -0 -0 -0 -0 -0 -0 -0 -0 -0 -0 -0 -0 -0 -0 -0 -0 -0 -0 -0 -0 -0 -0 -0 -0 -0 -0 -0
-0 -0 -0 -0 -0 -0 -0 -0 -0 -0 -0 -0 -0 -0 -0 -0 -0 -0 -0 -0 -0 -0 -0 -0 -0 -0 -0 -0 -0 -0 -0 -0 -0 -0 -0 -0 -0 -0 -0 -0 -2 -0 -0 -0
-0 -0 -0 -0 -0 -0 -0 -0 -0 -0 -0 -0 -0 -0 -0 -0 -0 -0 -0 -0 -0 -0 -0 -0 -0 -0 -0 -0 -0 -0 -0 -0 -0 -0 -0 -0 -0 -0 -0 -1 -5 -0 -0 -0
-0 -0 -0 -0 -0 -0 -0 -0 -0 -0 -0 -0 -0 -0 -0 -0 -0 -0 -0 -0 -0 -0 -0 -0 -0 -0 -2 -1 -0 -0 -0 -0 -0 -0 -0 -0 -0 -0 -0 -0 -0 -0 -0 -0
-0 -0 -0 -0 -2 -0 -0 -0 -0 -0 -0 -0 -0 -0 -0 -0 -0 -0 -0 -0 -0 -0 -0 -0 -0 -0 -0 -1 -1 -1 -0 -0 -0 -0 -0 -0 -0 -0 -1 -0 -0 -0 -0 -0
-0 -0 -0 -0 -0 -0 -1 -0 -0 -0 -0 -0 -0 -0 -0 -0 -0 -0 -0 -0 -0 -0 -0 -0 -0 -0 -0 -3 -5 -1 -1 -0 -0 -0 -0 -0 -0 -0 -2 -1 -0 -0 -0 -0
-6 -0 -1 -1 -0 -1 -0 -0 -0 -0 -0 -0 -0 -0 -0 -0 -0 -0 -0 -0 -0 -0 -0 -0 -0 -0 -0 -0 -3 -2 -2 -2 -2 -1 -3 -0 -0 -0 -0 -0 -0 -1 -0 -0
-0 -0 -0 -3 -12 -5 -0 -0 -0 -0 -0 -0 -0 -0 -0 -0 -0 -0 -0 -0 -0 -0 -0 -0 -0 -0 -0 -0 -0 -0 -1 -0 -0 -0 -0 -1 -0 -0 -0 -0 -0 -0 -0 -0
-0 -0 -0 -1 -3 -0 -0 -0 -0 -0 -0 -0 -0 -0 -0 -0 -0 -0 -0 -0 -0 -0 -0 -0 -0 -0 -0 -0 -0 -0 -0 -1 -1 -0 -0 -0 -0 -1 -0 -0 -0 -0 -0 -0
-0 -0 -1 -0 -0 -0 -0 -0 -0 -0 -0 -0 -0 -0 -0 -0 -0 -0 -0 -0 -0 -0 -0 -0 -0 -0 -0 -0 -0 -0 -0 -0 -0 -0 -0 -0 -0 -0 -0 -0 -0 -0 -0 -0
-1 -1 -2 -10 -0 -0 -0 -0 -0 -0 -0 -0 -0 -0 -0 -0 -0 -0 -0 -0 -0 -0 -0 -0 -0 -0 -0 -0 -0 -0 -0 -1 -1 -0 -0 -0 -0 -0 -0 -0 -0 -0 -0 -0
-35 -0 -0 -0 -0 -0 -0 -0 -0 -0 -0 -0 -0 -0 -0 -0 -0 -0 -0 -0 -0 -0 -0 -0 -0 -0 -0 -0 -0 -0 -0 -0 -0 -1 -0 -0 -0 -0 -0 -0 -0 -0 -0 -0
-0 -0 -0 -0 -0 -0 -0 -0 -0 -0 -0 -0 -0 -0 -0 -0 -0 -0 -0 -0 -0 -0 -0 -0 -0 -0 -0 -0 -1 -1 -1 -0 -1 -1 -0 -0 -0 -0 -0 -0 -0 -0 -0 -0
-0 -0 -0 -0 -0 -0 -0 -3 -3 -2 -5 -4 -6 -8 -3 -0 -0 -0 -0 -0 -0 -0 -0 -0 -0 -0 -0 -2 -1 -1 -1 -1 -1 -1 -0 -0 -0 -0 -0 -0 -0 -0 -0 -0
-0 -0 -0 -0 -0 -0 -0 -0 -0 -2 -0 -0 -0 -0 -0 -0 -0 -0 -0 -0 -0 -0 -0 -0 -0 -0 -0 -1 -1 -1 -1 -2 -1 -1 -1 -0 -0 -0 -0 -0 -0 -0 -0 -0
-0 -0 -0 -0 -0 -0 -3 -2 -0 -0 -0 -0 -0 -0 -0 -0 -0 -0 -0 -0 -1 -0 -2 -2 -3 -3 -2 -2 -2 -1 -1 -1 -0 -1 -0 -0 -0 -0 -0 -0 -0 -0 -0 -0
-0 -0 -0 -0 -0 -0 -0 -0 -0 -0 -0 -0 -0 -0 -0 -0 -0 -0 -0 -1 -1 -2 -3 -2 -2 -1 -2 -2 -2 -2 -1 -1 -1 -1 -0 -1 -0 -0 -0 -0 -0 -0 -0 -0
Wind_Speed
18 16 7 10 15 24 25 19 16 13 19 13 17 8 7 6 2 3 6 8 10 10 9 8 8 8 10 11 11 11 12 12 12 10 9 10 10 10 11 10 10 13 9 9
12 17 17 14 20 19 24 22 21 18 17 12 9 4 4 3 4 6 9 10 11 11 11 12 13 13 13 13 13 12 12 13 14 13 14 13 12 10 11 11 13 11 8 6
5 12 10 14 17 19 19 20 17 18 11 4 5 5 4 5 7 8 11 12 10 13 13 13 13 13 13 13 13 13 14 15 15 15 15 15 14 12 11 10 11 6 6 4
1 5 9 4 3 17 19 16 14 12 10 8 3 1 6 6 7 9 9 12 12 11 12 12 13 14 14 14 14 14 14 14 15 15 14 15 16 14 6 6 6 4 8 13
6 8 7 7 6 8 11 16 18 17 15 8 4 6 1 5 8 9 9 10 10 10 13 12 13 14 15 16 14 14 15 15 15 16 17 15 15 10 12 11 9 5 6 6
5 6 11 0 5 10 1 10 10 7 5 3 5 4 3 10 10 10 11 11 11 13 13 13 13 14 15 14 14 14 15 16 16 15 14 13 13 10 5 9 8 5 6 6
7 6 6 4 14 13 7 1 8 8 8 7 4 3 8 8 9 10 11 13 14 13 12 13 14 15 15 14 15 15 16 16 15 14 13 12 10 11 8 8 8 8 10 12
5 6 10 15 15 9 8 10 11 10 8 4 0 3 5 6 8 11 12 13 13 12 12 13 14 13 15 15 15 16 16 15 15 14 11 9 10 9 8 9 10 8 9 10
9 5 2 15 10 9 9 11 7 7 6 4 3 2 5 7 9 9 10 10 11 12 13 13 13 12 13 15 16 15 15 14 14 14 11 11 9 10 8 8 7 8 7 9
6 8 10 12 13 13 10 6 8 6 5 4 2 1 4 5 7 8 9 10 10 12 13 12 11 11 12 13 14 14 13 12 10 11 11 9 6 5 6 6 6 7 7 7
7 7 10 9 12 11 11 7 6 6 5 4 2 1 2 4 6 7 8 9 9 10 11 13 12 13 12 11 11 12 12 11 10 8 9 7 6 5 6 6 7 8 7 6
5 8 6 11 14 13 10 12 8 7 6 5 3 2 1 3 4 6 7 8 9 10 11 12 11 10 11 11 11 11 11 9 8 8 6 5 6 8 7 12 15 15 14 9
6 9 11 7 8 9 9 8 9 7 5 5 4 2 1 2 3 4 6 7 8 9 9 11 10 11 12 13 13 12 10 10 7 7 6 7 6 6 9 7 11 14 14 12
5 3 8 10 10 11 9 8 5 6 6 6 6 4 4 2 7 3 3 4 6 7 8 8 8 9 9 11 12 12 11 12 7 7 7 7 5 6 6 7 8 7 5 7
8 7 7 6 9 11 11 9 10 10 9 9 7 5 5 3 2 4 5 5 5 6 6 5 7 8 9 10 11 11 10 8 8 7 8 7 6 6 5 6 6 6 5 3
8 10 10 8 9 11 12 10 10 9 8 8 8 7 6 6 8 7 5 4 3 5 6 4 8 7 8 10 10 9 9 13 10 8 7 8 5 5 5 5 5 4 3 4
5 10 11 12 11 10 10 9 8 8 7 7 7 6 7 6 4 3 4 4 4 6 7 7 7 6 7 9 9 8 8 9 11 8 7 6 5 5 5 5 4 2 2 3
9 9 11 7 5 7 9 9 8 9 7 9 6 5 5 4 7 4 4 3 4 6 9 7 6 4 9 8 4 7 8 9 8 8 8 7 5 4 4 5 3 1 1 2
12 10 9 8 9 5 4 6 7 7 6 4 6 7 7 6 7 7 4 4 6 8 7 6 2 6 9 7 4 7 9 9 9 8 8 9 6 5 4 4 3 2 2 2
10 9 8 4 6 5 7 7 6 6 4 4 4 5 7 9 7 7 6 9 9 9 8 4 4 7 8 5 6 8 9 10 10 9 8 8 6 6 5 6 4 3 4 4
8 8 7 6 5 4 5 5 4 3 5 4 8 10 11 10 8 8 9 9 10 8 4 4 4 5 4 6 8 8 9 10 9 10 9 8 8 6 6 6 5 4 5 4
5 5 5 4 3 4 3 3 5 3 5 7 8 9 10 11 10 10 11 12 9 8 2 2 4 4 5 7 7 8 10 10 10 9 9 9 8 7 6 6 6 5 5 6
5 5 4 5 6 6 5 5 5 5 7 8 8 9 10 9 8 9 9 8 5 4 3 3 4 6 7 7 8 9 10 10 10 10 10 9 9 8 6 6 6 6 6 7
4 2 1 0 0 2 5 5 3 4 5 7 8 8 8 8 7 7 6 2 1 2 3 5 6 6 8 7 8 8 8 9 9 10 11 12 9 8 7 7 7 7 7 8
3 2 4 4 4 1 3 4 5 4 6 6 8 7 6 4 2 3 4 4 6 7 6 6 8 9 7 7 8 8 8 8 9 10 11 11 9 9 7 7 7 7 8 8
3 3 2 0 3 3 2 3 4 5 5 5 5 5 4 3 4 5 5 6 6 8 8 7 7 7 8 9 9 9 9 9 10 10 11 11 10 9 8 7 7 8 8 9
3 1 3 3 4 2 1 2 4 5 5 5 6 6 6 6 7 7 8 7 7 7 7 7 7 8 8 9 10 10 9 9 10 9 10 11 10 9 9 7 7 7 8 9
Wind_Direction
248 251 220 287 247 226 239 222 218 223 230 219 190 177 96 78 41 314 323 341 334 321 313 307 307 311 311 307 308 304 300 296 292 284 278 284 284 279 259 255 264 266 261 233
270 265 264 250 250 248 226 242 242 243 236 260 294 359 78 24 328 348 332 317 310 300 327 337 330 321 314 307 300 295 292 293 295 295 291 286 276 269 272 257 251 254 248 275
238 237 256 266 236 251 250 223 240 237 246 225 300 298 16 25 7 325 315 304 339 343 332 317 309 307 307 311 313 311 310 308 302 296 291 286 281 288 285 279 274 259 274 300
157 100 223 238 56 227 242 242 246 252 254 254 227 355 62 27 322 311 357 348 332 318 314 318 320 317 316 314 310 307 308 316 322 320 321 318 317 302 298 317 302 309 316 313
183 212 326 248 169 194 212 238 240 249 241 218 155 87 43 276 45 16 341 325 318 314 313 317 323 324 327 323 327 331 324 321 326 327 322 323 314 317 333 328 315 334 327 319
172 194 213 180 218 182 158 252 246 196 133 175 106 210 229 32 12 342 331 325 324 320 322 323 332 337 328 324 319 326 334 325 316 310 314 314 316 306 290 286 291 326 321 316
178 222 259 121 115 118 163 23 156 154 126 126 193 325 360 350 331 322 327 327 327 324 327 334 342 328 321 325 330 326 320 314 312 311 308 300 303 302 302 306 309 303 300 289
184 197 231 150 136 166 112 97 96 104 113 135 323 307 296 325 324 327 330 326 328 335 337 333 328 337 334 327 328 326 315 315 313 306 309 293 296 300 315 305 291 283 277 280
189 195 98 158 141 128 139 132 137 148 139 151 217 305 328 333 324 329 325 338 346 335 329 332 336 331 331 331 325 315 316 311 311 307 308 302 299 293 292 285 274 273 279 291
191 204 179 158 145 135 135 147 146 140 160 144 177 344 321 324 330 332 347 345 344 337 328 324 322 329 328 323 323 317 307 301 302 303 298 287 284 278 278 282 279 279 275 275
198 178 147 175 136 143 147 149 136 138 156 150 150 226 332 331 333 348 357 345 342 328 325 322 326 320 321 320 326 319 315 305 298 297 293 296 283 278 281 276 268 285 284 285
202 177 170 180 164 178 168 154 178 179 167 163 167 193 331 322 349 24 352 342 337 333 327 323 324 322 322 327 324 319 312 312 312 305 303 292 295 304 255 260 271 270 270 266
218 183 179 178 183 132 145 186 153 174 183 175 184 179 238 292 45 36 354 334 329 326 321 325 328 330 336 337 328 315 307 312 312 308 310 310 308 304 313 308 280 276 273 287
206 203 160 163 153 149 172 150 117 177 187 191 193 202 216 228 109 119 248 287 300 304 296 301 320 319 338 329 328 317 312 305 301 304 301 303 301 305 299 307 315 317 284 286
200 195 154 165 159 190 158 171 186 199 203 201 203 205 208 230 157 211 204 230 252 263 268 301 314 319 327 330 321 314 314 308 302 296 302 291 290 293 291 295 306 305 317 320
217 187 148 192 199 180 170 189 199 217 221 209 213 214 211 216 209 198 179 229 277 300 289 289 305 303 309 315 320 317 320 315 310 294 297 301 288 290 297 298 300 313 342 346
176 172 173 186 205 182 192 203 205 217 235 246 233 226 212 231 246 223 219 225 239 265 278 284 284 291 299 296 331 330 320 313 307 303 288 289 292 287 292 296 299 326 27 3
180 185 200 181 173 185 217 209 200 219 221 237 238 158 156 186 233 239 231 238 267 273 269 251 248 296 301 282 313 319 317 314 310 307 302 286 284 289 289 282 286 214 109 34
175 190 197 168 178 191 213 242 246 233 214 198 158 194 193 208 224 236 229 235 252 268 269 210 227 305 301 309 345 331 311 312 310 308 306 294 282 267 268 277 262 188 145 182
165 176 157 166 160 176 226 236 222 237 246 182 180 177 214 230 227 233 230 244 258 269 276 284 324 294 303 332 359 314 306 309 309 305 301 299 281 275 262 261 254 187 176 202
170 173 181 169 189 195 197 205 203 232 235 205 201 220 229 241 230 226 231 247 253 249 224 260 280 298 319 339 324 307 310 303 303 307 302 298 288 264 259 244 234 198 193 198
86 62 60 42 7 330 338 287 262 235 227 232 235 243 246 248 244 237 229 243 260 256 229 259 291 323 324 310 304 301 299 299 299 301 298 296 287 267 253 236 225 205 198 188
89 65 26 359 333 325 321 314 297 287 278 270 265 259 252 254 255 254 255 244 235 238 269 287 320 315 294 299 293 293 292 299 301 300 300 296 290 272 254 240 218 204 196 184
81 68 330 249 65 294 283 285 261 262 261 263 260 255 257 272 264 248 265 359 293 338 317 288 278 288 289 289 286 289 295 297 300 303 300 300 293 274 251 240 223 203 194 187
112 217 224 206 233 270 12 9 334 347 357 10 15 14 10 13 324 349 339 322 304 289 289 291 279 276 281 286 288 288 289 298 297 299 296 294 291 285 254 236 224 207 191 187
227 253 311 96 294 302 337 355 327 324 322 326 326 334 337 326 311 301 296 288 282 280 280 281 280 285 285 285 286 290 291 292 293 297 297 299 296 290 266 239 222 205 193 187
248 36 316 296 112 118 69 341 310 305 317 309 301 307 312 310 297 290 287 291 290 289 288 286 287 286 289 292 291 289 286 288 287 296 304 298 301 294 278 242 220 204 193 188